sat.trackr.live / text

‹ back to catalog

GSAT0216 (GALILEO 20)

NORAD 43056 · 2017-079B

PAYLOAD ACTIVE UNKNOWN

§ Identity

Operator
Country
ESA
Launch date
2017-12-12
Launch site
FRGUI
Launch vehicle
Mass (kg)
RCS (m²)

Purposes: earth_obs, nav

External: N2YO · Heavens-Above · Gunter

§ Orbital elements

Epoch: 2026-09-18T13:45:14.701248Z

Period
844.70 min
Inclination
55.0524°
Eccentricity
0.0004508
Mean motion
1.70474064 rev/d
Perigee alt
23,208.8 km
Apogee alt
23,235.5 km
Semi-major
29,600.3 km
B*
0.0000e+0
RAAN
218.9383°
Arg perigee
291.1911°
Mean anomaly
68.7342°
Rev number
5,459

§ Raw data

GSAT0216 (GALILEO 20)1 43056U 17079B   26261.57308682  .00000017  00000+0  00000+0 0  99942 43056  55.0524 218.9383 0004508 291.1911  68.7342  1.70474064 54592

JSON: /api/v1/satellites/43056 · /tle

For live sub-satellite position, see the globe view (requires WebGL).

§ Visibility from observer

Set your observer location to see the next 7 days of passes ≥ 10°. The values pass through the URL so the page stays shareable.

No JS? Fill the form by hand. The geolocation button needs JavaScript.